Terminal Aerodrome Forecast
Issued by NWS Indianapolis, IN

Home | Current Version | Previous Version | Text Only | Print | Product List | Glossary On
Versions: 1 2 3 4 5 6 7 8 9 10 11 12 13 14 15 16 17 18 19 20 21 22 23 24 25 26 27 28 29 30 31 32
000
FTUS43 KIND 031500 AAB
TAFIND
TAF AMD
KIND 031507Z 0315/0418 15012KT 2SM -FZRA OVC015 WS015/20035KT
     FM031730 18013KT 3SM -RA BR BKN006 OVC015 WS015/21038KT
     FM031900 19013KT 1 1/2SM -RA BR OVC004 WS015/21038KT
     FM032300 24011KT 1 1/2SM -RA BR OVC004
     FM040500 28008KT 3SM -RASN BR OVC006
     FM041000 32008KT P6SM OVC015=

USA.gov is the U.S. government's official web portal to all federal, state and local government web resources and services.